Time,TemperatureF,DewpointF,PressureIn,WindDirection,WindDirectionDegrees,WindSpeedMPH,WindSpeedGustMPH,Humidity,HourlyPrecipIn,Conditions,Clouds,dailyrainin,SoftwareType,DateUTC
2013-06-02 00:02:00,54.0,50.0,30.03,NNW,344,6.0,14.0,85,0.00,,,0.00,,2013-06-02 05:02:00,
2013-06-02 00:12:00,54.0,50.0,30.03,NNW,344,6.0,14.0,85,0.00,,,0.00,,2013-06-02 05:12:00,
2013-06-02 00:22:00,54.0,50.0,30.04,NW,306,6.0,11.0,86,0.00,,,0.00,,2013-06-02 05:22:00,
2013-06-02 00:32:00,53.0,50.0,30.04,WNW,300,5.0,12.0,88,0.00,,,0.00,,2013-06-02 05:32:00,
2013-06-02 00:42:00,53.0,50.0,30.04,WNW,300,5.0,12.0,88,0.00,,,0.00,,2013-06-02 05:42:00,
2013-06-02 00:52:00,53.0,50.0,30.04,NW,314,5.0,12.0,90,0.00,,,0.00,,2013-06-02 05:52:00,
2013-06-02 01:01:00,53.0,50.0,30.05,North,355,1.0,9.0,91,0.00,,,0.00,,2013-06-02 06:01:00,
2013-06-02 01:12:00,52.0,49.0,30.05,NNW,333,8.0,15.0,90,0.00,,,0.00,,2013-06-02 06:12:00,
2013-06-02 01:21:00,52.0,49.0,30.05,NNW,333,8.0,15.0,90,0.00,,,0.00,,2013-06-02 06:21:00,
2013-06-02 01:32:00,53.0,50.0,30.05,North,5,6.0,13.0,88,0.00,,,0.00,,2013-06-02 06:32:00,
2013-06-02 01:41:00,53.0,50.0,30.05,North,5,6.0,13.0,88,0.00,,,0.00,,2013-06-02 06:41:00,
2013-06-02 01:52:00,53.0,49.0,30.05,North,351,4.0,12.0,87,0.00,,,0.00,,2013-06-02 06:52:00,
2013-06-02 02:01:00,53.0,50.0,30.06,NNW,328,5.0,11.0,88,0.00,,,0.00,,2013-06-02 07:01:00,
2013-06-02 02:11:00,53.0,50.0,30.06,NNW,328,5.0,11.0,88,0.00,,,0.00,,2013-06-02 07:11:00,
2013-06-02 02:21:00,52.0,49.0,30.06,NNW,335,6.0,12.0,88,0.00,,,0.00,,2013-06-02 07:21:00,
2013-06-02 02:31:00,52.0,48.0,30.06,NNW,328,9.0,14.0,87,0.00,,,0.00,,2013-06-02 07:31:00,
2013-06-02 02:42:00,52.0,49.0,30.06,NNW,330,4.0,9.0,88,0.00,,,0.00,,2013-06-02 07:42:00,
2013-06-02 02:52:00,52.0,49.0,30.06,NNW,330,4.0,9.0,88,0.00,,,0.00,,2013-06-02 07:52:00,
2013-06-02 03:01:00,52.0,49.0,30.06,NNW,344,4.0,11.0,89,0.00,,,0.00,,2013-06-02 08:01:00,
2013-06-02 03:11:00,52.0,49.0,30.06,NNW,344,4.0,11.0,89,0.00,,,0.00,,2013-06-02 08:11:00,
2013-06-02 03:21:00,52.0,49.0,30.06,NNW,336,2.0,8.0,88,0.00,,,0.00,,2013-06-02 08:21:00,
2013-06-02 03:31:00,52.0,48.0,30.06,NW,326,1.0,12.0,87,0.00,,,0.00,,2013-06-02 08:31:00,
2013-06-02 03:41:00,52.0,48.0,30.06,North,360,4.0,8.0,86,0.00,,,0.00,,2013-06-02 08:41:00,
2013-06-02 03:52:00,52.0,48.0,30.06,North,360,4.0,8.0,86,0.00,,,0.00,,2013-06-02 08:52:00,
2013-06-02 04:01:00,52.0,48.0,30.06,North,9,2.0,11.0,85,0.00,,,0.00,,2013-06-02 09:01:00,
2013-06-02 04:11:00,52.0,48.0,30.06,North,9,2.0,11.0,85,0.00,,,0.00,,2013-06-02 09:11:00,
2013-06-02 04:21:00,52.0,47.0,30.07,SE,144,1.0,10.0,84,0.00,,,0.00,,2013-06-02 09:21:00,
2013-06-02 04:33:00,52.0,48.0,30.06,NW,325,2.0,5.0,85,0.00,,,0.00,,2013-06-02 09:33:00,
2013-06-02 04:42:00,52.0,48.0,30.06,NW,325,2.0,5.0,85,0.00,,,0.00,,2013-06-02 09:42:00,
2013-06-02 04:53:00,52.0,47.0,30.07,NNE,21,3.0,8.0,84,0.00,,,0.00,,2013-06-02 09:53:00,
2013-06-02 05:02:00,52.0,46.0,30.07,North,349,1.0,11.0,81,0.00,,,0.00,,2013-06-02 10:02:00,
2013-06-02 05:12:00,52.0,46.0,30.07,North,349,1.0,11.0,81,0.00,,,0.00,,2013-06-02 10:12:00,
2013-06-02 05:22:00,52.0,46.0,30.08,NNW,348,6.0,11.0,81,0.00,,,0.00,,2013-06-02 10:22:00,
2013-06-02 05:32:00,52.0,46.0,30.08,NW,315,4.0,13.0,80,0.00,,,0.00,,2013-06-02 10:32:00,
2013-06-02 05:42:00,52.0,46.0,30.08,NW,315,4.0,13.0,80,0.00,,,0.00,,2013-06-02 10:42:00,
2013-06-02 05:52:00,53.0,47.0,30.09,NNE,22,2.0,9.0,80,0.00,,,0.00,,2013-06-02 10:52:00,
2013-06-02 06:02:00,52.0,46.0,30.09,North,360,1.0,7.0,81,0.00,,,0.00,,2013-06-02 11:02:00,
2013-06-02 06:12:00,52.0,46.0,30.09,North,360,1.0,7.0,81,0.00,,,0.00,,2013-06-02 11:12:00,
2013-06-02 06:21:00,52.0,47.0,30.06,North,360,0.0,7.0,82,0.00,,,0.00,,2013-06-02 11:21:00,
2013-06-02 06:32:00,52.0,47.0,30.06,North,349,2.0,8.0,83,0.00,,,0.00,,2013-06-02 11:32:00,
2013-06-02 06:42:00,52.0,47.0,30.06,North,349,2.0,8.0,83,0.00,,,0.00,,2013-06-02 11:42:00,
2013-06-02 06:52:00,52.0,47.0,30.07,NNW,337,0.0,9.0,83,0.00,,,0.00,,2013-06-02 11:52:00,
2013-06-02 07:01:00,52.0,47.0,30.07,NNW,336,2.0,9.0,83,0.00,,,0.00,,2013-06-02 12:01:00,
2013-06-02 07:11:00,52.0,47.0,30.07,NNW,336,2.0,9.0,83,0.00,,,0.00,,2013-06-02 12:11:00,
2013-06-02 07:21:00,53.0,48.0,30.07,NW,307,0.0,4.0,84,0.00,,,0.00,,2013-06-02 12:21:00,
2013-06-02 07:31:00,53.0,48.0,30.08,North,360,1.0,6.0,83,0.00,,,0.00,,2013-06-02 12:31:00,
2013-06-02 07:42:00,53.0,48.0,30.08,North,360,1.0,6.0,83,0.00,,,0.00,,2013-06-02 12:42:00,
2013-06-02 07:52:00,53.0,48.0,30.08,North,355,0.0,4.0,83,0.00,,,0.00,,2013-06-02 12:52:00,
2013-06-02 08:01:00,53.0,48.0,30.09,NW,312,5.0,8.0,82,0.00,,,0.00,,2013-06-02 13:01:00,
2013-06-02 08:11:00,53.0,48.0,30.09,NW,312,5.0,8.0,82,0.00,,,0.00,,2013-06-02 13:11:00,
2013-06-02 08:21:00,53.0,47.0,30.09,NW,319,1.0,7.0,81,0.00,,,0.00,,2013-06-02 13:21:00,
2013-06-02 08:32:00,53.0,47.0,30.10,NW,304,4.0,8.0,81,0.00,,,0.00,,2013-06-02 13:32:00,
2013-06-02 08:42:00,53.0,47.0,30.10,NW,304,4.0,8.0,81,0.00,,,0.00,,2013-06-02 13:42:00,
2013-06-02 08:52:00,53.0,48.0,30.10,WNW,291,1.0,8.0,82,0.00,,,0.00,,2013-06-02 13:52:00,
2013-06-02 09:01:00,54.0,48.0,30.10,NNW,346,4.0,8.0,80,0.00,,,0.00,,2013-06-02 14:01:00,
2013-06-02 09:11:00,55.0,48.0,30.10,NNW,333,2.0,10.0,77,0.00,,,0.00,,2013-06-02 14:11:00,
2013-06-02 09:21:00,55.0,48.0,30.10,NNW,333,2.0,10.0,77,0.00,,,0.00,,2013-06-02 14:21:00,
2013-06-02 09:32:00,56.0,49.0,30.10,North,360,5.0,8.0,76,0.00,,,0.00,,2013-06-02 14:32:00,
2013-06-02 09:42:00,56.0,49.0,30.10,North,360,5.0,8.0,76,0.00,,,0.00,,2013-06-02 14:42:00,
2013-06-02 09:52:00,57.0,48.0,30.10,NNE,14,2.0,10.0,72,0.00,,,0.00,,2013-06-02 14:52:00,
2013-06-02 10:01:00,58.0,49.0,30.11,NW,309,3.0,8.0,71,0.00,,,0.00,,2013-06-02 15:01:00,
2013-06-02 10:11:00,58.0,49.0,30.11,NW,309,3.0,8.0,71,0.00,,,0.00,,2013-06-02 15:11:00,
2013-06-02 10:21:00,57.0,48.0,30.11,North,11,0.0,7.0,71,0.00,,,0.00,,2013-06-02 15:21:00,
2013-06-02 10:32:00,57.0,47.0,30.11,North,355,3.0,8.0,70,0.00,,,0.00,,2013-06-02 15:32:00,
2013-06-02 10:43:00,58.0,48.0,30.11,North,9,2.0,10.0,70,0.00,,,0.00,,2013-06-02 15:43:00,
2013-06-02 10:53:00,58.0,48.0,30.11,North,9,2.0,10.0,70,0.00,,,0.00,,2013-06-02 15:53:00,
2013-06-02 11:03:00,58.0,48.0,30.11,NNW,340,1.0,9.0,69,0.00,,,0.00,,2013-06-02 16:03:00,
2013-06-02 11:13:00,58.0,48.0,30.11,NNW,340,1.0,9.0,69,0.00,,,0.00,,2013-06-02 16:13:00,
2013-06-02 11:23:00,58.0,48.0,30.10,North,355,1.0,9.0,69,0.00,,,0.00,,2013-06-02 16:23:00,
2013-06-02 11:33:00,59.0,49.0,30.11,North,355,3.0,8.0,69,0.00,,,0.00,,2013-06-02 16:33:00,
2013-06-02 11:42:00,59.0,49.0,30.11,North,355,3.0,8.0,69,0.00,,,0.00,,2013-06-02 16:42:00,
2013-06-02 11:52:00,61.0,50.0,30.10,NNW,348,4.0,9.0,67,0.00,,,0.00,,2013-06-02 16:52:00,
2013-06-02 12:02:00,62.0,49.0,30.10,NNE,25,1.0,7.0,63,0.00,,,0.00,,2013-06-02 17:02:00,
2013-06-02 12:12:00,62.0,49.0,30.09,East,90,1.0,8.0,63,0.00,,,0.00,,2013-06-02 17:12:00,
2013-06-02 12:22:00,62.0,49.0,30.09,East,90,1.0,8.0,63,0.00,,,0.00,,2013-06-02 17:22:00,
2013-06-02 12:32:00,62.0,48.0,30.09,NNE,21,1.0,6.0,61,0.00,,,0.00,,2013-06-02 17:32:00,
2013-06-02 12:42:00,62.0,51.0,30.09,NNW,344,4.0,9.0,66,0.00,,,0.00,,2013-06-02 17:42:00,
2013-06-02 12:52:00,62.0,51.0,30.09,NNW,344,4.0,9.0,66,0.00,,,0.00,,2013-06-02 17:52:00,
2013-06-02 13:01:00,63.0,49.0,30.08,NW,318,5.0,8.0,60,0.00,,,0.00,,2013-06-02 18:01:00,
2013-06-02 13:11:00,63.0,48.0,30.08,NNW,329,2.0,7.0,59,0.00,,,0.00,,2013-06-02 18:11:00,
2013-06-02 13:21:00,63.0,48.0,30.08,NNW,329,2.0,7.0,59,0.00,,,0.00,,2013-06-02 18:21:00,
2013-06-02 13:32:00,64.0,51.0,30.08,NNE,13,3.0,9.0,62,0.00,,,0.00,,2013-06-02 18:32:00,
2013-06-02 13:42:00,65.0,52.0,30.07,North,5,1.0,5.0,63,0.00,,,0.00,,2013-06-02 18:42:00,
2013-06-02 13:52:00,65.0,52.0,30.07,North,5,1.0,5.0,63,0.00,,,0.00,,2013-06-02 18:52:00,
2013-06-02 14:01:00,65.0,51.0,30.10,NNW,347,2.0,4.0,60,0.00,,,0.00,,2013-06-02 19:01:00,
2013-06-02 14:11:00,65.0,51.0,30.10,NNW,347,2.0,4.0,60,0.00,,,0.00,,2013-06-02 19:11:00,
2013-06-02 14:21:00,66.0,49.0,30.10,NNW,328,2.0,8.0,55,0.00,,,0.00,,2013-06-02 19:21:00,
2013-06-02 14:32:00,66.0,51.0,30.09,NNE,15,0.0,3.0,59,0.00,,,0.00,,2013-06-02 19:32:00,
2013-06-02 14:42:00,66.0,51.0,30.09,NNE,15,0.0,3.0,59,0.00,,,0.00,,2013-06-02 19:42:00,
2013-06-02 14:52:00,67.0,50.0,30.09,North,355,0.0,5.0,54,0.00,,,0.00,,2013-06-02 19:52:00,
2013-06-02 15:02:00,67.0,52.0,30.09,NNW,343,2.0,5.0,58,0.00,,,0.00,,2013-06-02 20:02:00,
2013-06-02 15:11:00,67.0,52.0,30.09,NNW,343,2.0,5.0,58,0.00,,,0.00,,2013-06-02 20:11:00,
2013-06-02 15:21:00,68.0,50.0,30.09,ENE,76,1.0,5.0,53,0.00,,,0.00,,2013-06-02 20:21:00,
2013-06-02 15:32:00,68.0,50.0,30.08,ENE,60,1.0,6.0,53,0.00,,,0.00,,2013-06-02 20:32:00,
2013-06-02 15:42:00,68.0,50.0,30.08,ENE,60,1.0,6.0,53,0.00,,,0.00,,2013-06-02 20:42:00,
2013-06-02 15:52:00,68.0,50.0,30.08,East,80,2.0,7.0,53,0.00,,,0.00,,2013-06-02 20:52:00,
2013-06-02 16:01:00,68.0,50.0,30.07,ENE,75,0.0,2.0,53,0.00,,,0.00,,2013-06-02 21:01:00,
2013-06-02 16:11:00,68.0,50.0,30.07,ENE,75,0.0,2.0,53,0.00,,,0.00,,2013-06-02 21:11:00,
2013-06-02 16:21:00,69.0,51.0,30.06,East,87,3.0,9.0,52,0.00,,,0.00,,2013-06-02 21:21:00,
2013-06-02 16:33:00,69.0,50.0,30.06,NNE,22,2.0,5.0,50,0.00,,,0.00,,2013-06-02 21:33:00,
2013-06-02 16:42:00,69.0,50.0,30.06,NNE,22,2.0,5.0,50,0.00,,,0.00,,2013-06-02 21:42:00,
2013-06-02 16:53:00,69.0,51.0,30.05,NNE,15,0.0,7.0,52,0.00,,,0.00,,2013-06-02 21:53:00,
2013-06-02 17:03:00,69.0,50.0,30.04,ENE,67,0.0,5.0,51,0.00,,,0.00,,2013-06-02 22:03:00,
2013-06-02 17:12:00,69.0,50.0,30.04,ENE,67,0.0,5.0,51,0.00,,,0.00,,2013-06-02 22:12:00,
2013-06-02 17:23:00,69.0,48.0,30.04,NNW,342,0.0,4.0,48,0.00,,,0.00,,2013-06-02 22:23:00,
2013-06-02 17:33:00,70.0,50.0,30.04,WSW,247,0.0,4.0,49,0.00,,,0.00,,2013-06-02 22:33:00,
2013-06-02 17:42:00,70.0,50.0,30.04,WSW,247,0.0,4.0,49,0.00,,,0.00,,2013-06-02 22:42:00,
2013-06-02 17:52:00,69.0,48.0,30.03,WSW,240,1.0,4.0,48,0.00,,,0.00,,2013-06-02 22:52:00,
2013-06-02 18:02:00,70.0,49.0,30.02,ENE,76,0.0,5.0,48,0.00,,,0.00,,2013-06-02 23:02:00,
2013-06-02 18:12:00,70.0,49.0,30.02,ENE,76,0.0,5.0,48,0.00,,,0.00,,2013-06-02 23:12:00,
2013-06-02 18:22:00,69.0,50.0,30.02,East,100,4.0,8.0,50,0.00,,,0.00,,2013-06-02 23:22:00,
2013-06-02 18:32:00,69.0,50.0,30.02,ESE,102,1.0,6.0,50,0.00,,,0.00,,2013-06-02 23:32:00,
2013-06-02 18:42:00,69.0,50.0,30.02,ESE,102,1.0,6.0,50,0.00,,,0.00,,2013-06-02 23:42:00,
2013-06-02 18:52:00,68.0,49.0,30.01,East,85,0.0,8.0,51,0.00,,,0.00,,2013-06-02 23:52:00,
2013-06-02 19:01:00,68.0,49.0,30.01,SSE,165,2.0,5.0,50,0.00,,,0.00,,2013-06-03 00:01:00,
2013-06-02 19:11:00,68.0,49.0,30.01,East,92,3.0,6.0,50,0.00,,,0.00,,2013-06-03 00:11:00,
2013-06-02 19:21:00,68.0,49.0,30.01,East,92,3.0,6.0,50,0.00,,,0.00,,2013-06-03 00:21:00,
2013-06-02 19:32:00,68.0,49.0,30.00,East,84,0.0,7.0,50,0.00,,,0.00,,2013-06-03 00:32:00,
2013-06-02 19:42:00,67.0,49.0,30.00,ESE,109,5.0,8.0,53,0.00,,,0.00,,2013-06-03 00:42:00,
2013-06-02 19:52:00,67.0,49.0,30.00,ESE,109,5.0,8.0,53,0.00,,,0.00,,2013-06-03 00:52:00,
2013-06-02 20:01:00,66.0,48.0,30.00,ESE,105,2.0,7.0,52,0.00,,,0.00,,2013-06-03 01:01:00,
2013-06-02 20:11:00,66.0,48.0,30.00,ESE,105,2.0,7.0,52,0.00,,,0.00,,2013-06-03 01:11:00,
2013-06-02 20:21:00,65.0,48.0,30.00,ESE,109,1.0,6.0,54,0.00,,,0.00,,2013-06-03 01:21:00,
2013-06-02 20:32:00,64.0,48.0,30.00,ESE,103,1.0,5.0,57,0.00,,,0.00,,2013-06-03 01:32:00,
2013-06-02 20:42:00,64.0,48.0,30.00,ESE,103,1.0,5.0,57,0.00,,,0.00,,2013-06-03 01:42:00,
2013-06-02 20:52:00,63.0,49.0,30.00,ESE,103,1.0,2.0,61,0.00,,,0.00,,2013-06-03 01:52:00,
2013-06-02 21:02:00,62.0,49.0,30.00,East,101,2.0,4.0,63,0.00,,,0.00,,2013-06-03 02:02:00,
2013-06-02 21:12:00,62.0,49.0,30.00,East,101,2.0,4.0,63,0.00,,,0.00,,2013-06-03 02:12:00,
2013-06-02 21:22:00,61.0,50.0,30.00,East,101,2.0,4.0,67,0.00,,,0.00,,2013-06-03 02:22:00,
2013-06-02 21:32:00,59.0,50.0,30.01,East,101,0.0,2.0,72,0.00,,,0.00,,2013-06-03 02:32:00,
2013-06-02 21:42:00,59.0,50.0,30.01,East,101,0.0,2.0,72,0.00,,,0.00,,2013-06-03 02:42:00,
2013-06-02 21:52:00,59.0,50.0,30.01,East,101,4.0,5.0,73,0.00,,,0.00,,2013-06-03 02:52:00,
2013-06-02 22:02:00,58.0,50.0,30.01,ESE,102,4.0,5.0,75,0.00,,,0.00,,2013-06-03 03:02:00,
2013-06-02 22:12:00,57.0,49.0,30.01,ESE,102,3.0,4.0,74,0.00,,,0.00,,2013-06-03 03:12:00,
2013-06-02 22:22:00,57.0,49.0,30.01,ESE,102,3.0,4.0,74,0.00,,,0.00,,2013-06-03 03:22:00,
2013-06-02 22:33:00,57.0,50.0,30.02,ESE,102,0.0,4.0,76,0.00,,,0.00,,2013-06-03 03:33:00,
2013-06-02 22:43:00,57.0,50.0,30.02,ESE,102,0.0,4.0,76,0.00,,,0.00,,2013-06-03 03:43:00,
2013-06-02 22:53:00,56.0,49.0,30.02,ESE,102,0.0,0.0,76,0.00,,,0.00,,2013-06-03 03:53:00,
2013-06-02 23:03:00,55.0,48.0,30.02,ESE,102,0.0,0.0,76,0.00,,,0.00,,2013-06-03 04:03:00,
2013-06-02 23:12:00,55.0,48.0,30.02,ESE,102,0.0,0.0,76,0.00,,,0.00,,2013-06-03 04:12:00,
2013-06-02 23:23:00,54.0,48.0,30.02,ESE,102,0.0,0.0,80,0.00,,,0.00,,2013-06-03 04:23:00,
2013-06-02 23:33:00,54.0,49.0,30.02,ESE,102,0.0,0.0,82,0.00,,,0.00,,2013-06-03 04:33:00,
2013-06-02 23:42:00,54.0,49.0,30.02,ESE,102,0.0,0.0,82,0.00,,,0.00,,2013-06-03 04:42:00,
2013-06-02 23:53:00,53.0,48.0,30.02,ESE,102,0.0,0.0,82,0.00,,,0.00,,2013-06-03 04:53:00,